Monroe, LA

10:26 AM CST on February 06, 2016 (GMT -0600)
Monroe Regional

Weather History for KMLU - August, 2013

Change the Weather History Date:

Friday, August 2, 2013

  Actual Average Record
Temperature  
Mean Temperature 85 °F 83 °F  
Max Temperature 97 °F 95 °F 106 °F (2010)
Min Temperature 72 °F 72 °F 61 °F (1965)
Degree Days  
Heating Degree Days 0 0  
Month to date heating degree days 0 0  
Since 1 June heating degree days 0 0  
Since 1 July heating degree days 0 0  
Cooling Degree Days 20 18  
Month to date cooling degree days 42 36  
Year to date cooling degree days 1333 1496  
Since 1 June cooling degree days 983 1061  
Growing Degree Days 35 (Base 50)    
Moisture  
Dew Point 73 °F    
Average Humidity 69    
Maximum Humidity 93    
Minimum Humidity 45    
Precipitation  
Precipitation 0.00 in 0.10 in 1.58 in (1981)
Month to date precipitation T 0.19  
Year to date precipitation 32.23 32.49  
Snow  
Snow 0.00 in - - ()
Month to date snowfall 0.0  
Since 1 June snowfall 0.0  
Since 1 July snowfall 0.0  
Snow Depth 0.00 in    
Sea Level Pressure  
Sea Level Pressure 29.97 in    
Wind  
Wind Speed 2 mph (ENE)    
Max Wind Speed 8 mph    
Max Gust Speed 10 mph    
Visibility 9 miles    
Events      
T = Trace of Precipitation, MM = Missing Value Source: NWS Daily Summary

Daily Weather History Graph

Daily Weather History Graph

Search for Another Location

Airport or City:

Trip Planner

Search our weather history database for the weather conditions in past years. The results will help you decide how hot, cold, wet, or windy it might be!

Date:

Astronomy

Aug. 02, 2013 Rise Set
Actual Time 6:23 AM CDT 8:04 PM CDT
Civil Twilight 5:56 AM CDT 8:31 PM CDT
Nautical Twilight 5:24 AM CDT 9:03 PM CDT
Astronomical Twilight 4:50 AM CDT 9:37 PM CDT
Moon 2:47 AM CDT (8/2) 5:00 PM CDT (8/2)
Length of Visible Light 14h 35m
Length of Day
13h 41m
Waning Crescent, 15% of the Moon is Illuminated
Aug 2
Waning Crescent
Aug 6
New
Aug 14
First Quarter
Aug 20
Full
Aug 28
Last Quarter

Hourly Weather History & Observations

Time (CDT) Temp. Heat Index Dew Point Humidity Pressure Visibility Wind Dir Wind Speed Gust Speed Precip Events Conditions
12:53 AM 79.0 °F - 73.0 °F 82% 29.96 in 10.0 mi ENE 5.8 mph - N/A   Clear
1:53 AM 78.1 °F - 73.0 °F 84% 29.96 in 10.0 mi ENE 5.8 mph - N/A   Clear
2:53 AM 77.0 °F - 73.0 °F 88% 29.97 in 9.0 mi ENE 5.8 mph - N/A   Clear
3:53 AM 75.0 °F - 72.0 °F 90% 29.97 in 7.0 mi ENE 4.6 mph - N/A   Clear
4:53 AM 75.0 °F - 72.0 °F 90% 29.97 in 7.0 mi Calm Calm - N/A   Clear
5:53 AM 73.9 °F - 71.1 °F 91% 29.97 in 5.0 mi Calm Calm - N/A   Clear
6:53 AM 73.0 °F - 71.1 °F 93% 29.98 in 2.5 mi ENE 4.6 mph - N/A   Clear
7:05 AM 73.4 °F - 71.6 °F 94% 29.98 in 4.0 mi ENE 3.5 mph - N/A   Clear
7:53 AM 77.0 °F - 72.0 °F 84% 29.99 in 6.0 mi East 4.6 mph - N/A   Haze
8:53 AM 81.0 °F 85.8 °F 73.0 °F 77% 30.00 in 8.0 mi Calm Calm - N/A   Clear
9:53 AM 84.9 °F 93.3 °F 75.0 °F 72% 30.00 in 6.0 mi Calm Calm - N/A   Haze
10:53 AM 89.1 °F 99.1 °F 75.0 °F 63% 29.99 in 10.0 mi Variable 3.5 mph - N/A   Clear
11:53 AM 91.0 °F 99.3 °F 73.0 °F 55% 30.00 in 10.0 mi Variable 4.6 mph - N/A   Partly Cloudy
12:53 PM 93.9 °F 102.1 °F 72.0 °F 49% 30.00 in 10.0 mi North 5.8 mph - N/A   Partly Cloudy
1:53 PM 93.9 °F 102.1 °F 72.0 °F 49% 29.98 in 10.0 mi SW 3.5 mph - N/A   Mostly Cloudy
2:53 PM 95.0 °F 103.2 °F 72.0 °F 47% 29.96 in 10.0 mi Calm Calm - N/A   Clear
3:53 PM 96.1 °F 105.6 °F 73.0 °F 47% 29.94 in 10.0 mi Calm Calm - N/A   Partly Cloudy
4:53 PM 96.1 °F 103.5 °F 71.1 °F 44% 29.94 in 10.0 mi Calm Calm - N/A   Clear
5:53 PM 97.0 °F 104.8 °F 71.1 °F 43% 29.93 in 10.0 mi Calm Calm - N/A   Clear
6:53 PM 93.0 °F 101.9 °F 73.0 °F 52% 29.94 in 10.0 mi ENE 3.5 mph - N/A   Clear
7:53 PM 87.1 °F 97.3 °F 75.9 °F 69% 29.95 in 10.0 mi ENE 3.5 mph - N/A   Clear
8:53 PM 84.0 °F 92.6 °F 75.9 °F 76% 29.96 in 10.0 mi Calm Calm - N/A   Clear
9:53 PM 81.0 °F 86.7 °F 75.0 °F 82% 29.98 in 10.0 mi Calm Calm - N/A   Clear
10:53 PM 82.9 °F 89.4 °F 73.9 °F 74% 29.98 in 10.0 mi SSE 3.5 mph - N/A   Clear
11:53 PM 82.9 °F 88.8 °F 73.0 °F 72% 29.98 in 10.0 mi Variable 3.5 mph - N/A   Clear